Date String (YYYY-MM-DD hh:mm:ss) UTC,Instrument flags,Ambient pressure (hPa),Sample flow (lpm),Bypass flow (lpm),Sample temperature (°C),Ambient temperature (°C),ASC tube jacket temperature (°C),LED temperature (°C),Box temperature (°C),Sample RH (%),Span deviation,Mass concentration (μg/m³),Mass concentration (μg/m³),Mass concentration (μg/m³)
DateTimeUTC,F1_M11,P_M11,Q1_M11,Q2_M11,T1_M11,T2_M11,T3_M11,T4_M11,T5_M11,U1_M11,ZSPAN_M11,X0_M11,X2_M11,X1_M11
2021-10-11 21:00:00,,0817.0,4.98,0.00,29.8,28.9,00.0,38.8,31.6,11.0,0000.0,0011.42,0003.92,0003.23
2021-10-11 21:01:00,,0816.6,5.02,0.00,29.8,28.9,00.0,38.8,31.6,11.1,0000.0,0012.38,0003.97,0003.22
2021-10-11 21:02:00,,0816.7,4.99,0.00,29.8,29.0,00.0,38.8,31.6,11.1,0000.0,0014.65,0004.05,0003.22
2021-10-11 21:03:00,,0817.0,5.00,0.00,29.8,29.1,00.0,38.8,31.6,11.0,0000.0,0014.94,0004.05,0003.22
2021-10-11 21:04:00,,0816.6,5.01,0.00,29.9,29.1,00.0,38.8,31.7,10.9,0000.0,0015.12,0004.09,0003.23
2021-10-11 21:05:00,,0816.6,5.00,0.00,29.9,29.1,00.0,38.9,31.7,11.0,0000.0,0015.86,0004.11,0003.22
2021-10-11 21:06:00,,0816.6,5.01,0.00,29.9,29.2,00.0,38.9,31.7,10.9,0000.0,0015.91,0004.11,0003.23
2021-10-11 21:07:00,,0816.6,5.00,0.00,29.9,29.2,00.0,38.9,31.7,10.9,0000.0,0016.59,0004.13,0003.23
2021-10-11 21:08:00,,0816.6,4.99,0.00,29.9,29.2,00.0,38.9,31.7,10.9,0000.0,0017.12,0004.14,0003.23
2021-10-11 21:09:00,,0816.6,5.00,0.00,29.9,28.8,00.0,38.9,31.6,10.9,0000.0,0017.00,0004.16,0003.24
2021-10-11 21:10:00,,0816.5,5.01,0.00,29.8,26.9,00.0,38.9,31.1,10.9,0000.0,0016.62,0004.17,0003.25
2021-10-11 21:11:00,,0816.5,4.99,0.00,29.7,26.5,00.0,38.9,31.0,10.9,0000.0,0016.25,0004.14,0003.27
2021-10-11 21:12:00,,0816.5,5.01,0.00,29.6,26.9,00.0,38.8,31.1,11.2,0000.0,0015.32,0004.10,0003.27
2021-10-11 21:13:00,,0816.5,4.99,0.00,29.6,27.3,00.0,38.8,31.2,11.2,0000.0,0013.78,0004.01,0003.27
2021-10-11 21:14:00,,0816.5,5.00,0.00,29.6,27.6,00.0,38.8,31.2,11.1,0000.0,0013.18,0003.95,0003.26
2021-10-11 21:15:00,,0816.5,5.00,0.00,29.6,27.9,00.0,38.8,31.3,11.1,0000.0,0013.57,0003.90,0003.25
2021-10-11 21:16:00,,0816.5,4.99,0.00,29.7,28.2,00.0,38.8,31.4,11.0,0000.0,0012.75,0003.88,0003.26
2021-10-11 21:17:00,,0816.5,5.00,0.00,29.7,28.3,00.0,38.8,31.5,11.2,0000.0,0012.56,0003.90,0003.25
2021-10-11 21:18:00,,0816.7,4.99,0.00,29.7,28.5,00.0,38.8,31.5,11.1,0000.0,0011.77,0003.86,0003.24
2021-10-11 21:19:00,,0816.5,5.00,0.00,29.8,28.6,00.0,38.8,31.6,11.1,0000.0,0010.73,0003.81,0003.24
2021-10-11 21:20:00,,0816.6,5.00,0.00,29.8,28.7,00.0,38.8,31.6,11.2,0000.0,0010.34,0003.80,0003.22
2021-10-11 21:21:00,,0816.4,5.00,0.00,29.8,28.8,00.0,38.8,31.7,11.2,0000.0,0010.32,0003.79,0003.21
2021-10-11 21:22:00,,0816.4,4.99,0.00,29.9,28.9,00.0,38.8,31.7,11.1,0000.0,0010.21,0003.80,0003.19
2021-10-11 21:23:00,,0816.4,5.01,0.00,29.9,29.0,00.0,38.9,31.8,11.0,0000.0,0010.83,0003.82,0003.17
2021-10-11 21:24:00,,0816.4,4.98,0.00,29.9,29.1,00.0,38.9,31.8,10.9,0000.0,0010.46,0003.82,0003.17
2021-10-11 21:25:00,,0816.4,5.00,0.00,29.9,29.1,00.0,38.9,31.8,10.9,0000.0,0009.77,0003.83,0003.17
2021-10-11 21:26:00,,0816.4,5.00,0.00,29.9,29.1,00.0,38.9,31.8,10.9,0000.0,0009.83,0003.84,0003.17
2021-10-11 21:27:00,,0816.4,5.00,0.00,29.9,29.2,00.0,38.9,31.7,10.8,0000.0,0009.97,0003.81,0003.16
2021-10-11 21:28:00,,0816.4,4.99,0.00,30.0,29.0,00.0,38.9,31.7,10.8,0000.0,0011.14,0003.80,0003.16
2021-10-11 21:29:00,,0816.3,5.00,0.00,29.9,27.3,00.0,38.9,31.2,10.9,0000.0,0011.87,0003.86,0003.16
2021-10-11 21:30:00,,0816.3,4.99,0.00,29.7,26.5,00.0,38.9,31.1,11.0,0000.0,0012.35,0003.88,0003.16
2021-10-11 21:31:00,,0816.3,5.00,0.00,29.7,26.8,00.0,38.8,31.1,11.0,0000.0,0012.64,0003.89,0003.16
2021-10-11 21:32:00,,0816.3,5.00,0.00,29.6,27.2,00.0,38.8,31.2,11.1,0000.0,0012.45,0003.87,0003.16
2021-10-11 21:33:00,,0816.3,5.01,0.00,29.6,27.5,00.0,38.8,31.3,11.3,0000.0,0012.13,0003.88,0003.15
2021-10-11 21:34:00,,0816.2,5.00,0.00,29.6,27.8,00.0,38.8,31.3,11.3,0000.0,0011.69,0003.84,0003.14
2021-10-11 21:35:00,,0816.2,4.99,0.00,29.7,28.1,00.0,38.8,31.4,10.9,0000.0,0011.81,0003.86,0003.13
2021-10-11 21:36:00,,0816.3,5.01,0.00,29.7,28.3,00.0,38.8,31.5,10.7,0000.0,0012.65,0003.87,0003.12
2021-10-11 21:37:00,,0816.2,5.00,0.00,29.7,28.4,00.0,38.8,31.5,10.8,0000.0,0012.78,0003.86,0003.11
2021-10-11 21:38:00,,0816.3,4.98,0.00,29.8,28.6,00.0,38.8,31.6,10.8,0000.0,0013.35,0003.89,0003.11
2021-10-11 21:39:00,,0816.3,5.01,0.00,29.8,28.7,00.0,38.8,31.6,10.7,0000.0,0013.24,0003.89,0003.07
2021-10-11 21:40:00,,0816.3,5.00,0.00,29.8,28.8,00.0,38.8,31.6,10.8,0000.0,0012.56,0003.89,0003.06
2021-10-11 21:41:00,,0816.3,5.01,0.00,29.8,28.9,00.0,38.8,31.7,10.8,0000.0,0012.59,0003.88,0003.05
2021-10-11 21:42:00,,0816.3,5.00,0.00,29.9,28.9,00.0,38.8,31.7,10.5,0000.0,0012.30,0003.91,0003.05
2021-10-11 21:43:00,,0816.2,5.00,0.00,29.9,29.0,00.0,38.9,31.7,10.5,0000.0,0012.85,0003.94,0003.05
2021-10-11 21:44:00,,0816.3,5.01,0.00,29.9,29.0,00.0,38.9,31.7,10.6,0000.0,0013.30,0003.94,0003.07
2021-10-11 21:45:00,,0816.2,5.00,0.00,29.9,29.1,00.0,38.9,31.7,10.4,0000.0,0013.12,0003.96,0003.08
2021-10-11 21:46:00,,0816.2,5.01,0.00,29.9,29.1,00.0,38.9,31.7,10.3,0000.0,0012.74,0003.93,0003.09
2021-10-11 21:47:00,,0816.2,5.01,0.00,29.9,28.6,00.0,38.9,31.6,10.3,0000.0,0012.72,0003.93,0003.10
2021-10-11 21:48:00,,0816.1,4.99,0.00,29.8,26.8,00.0,38.9,31.1,10.4,0000.0,0013.28,0003.95,0003.11
2021-10-11 21:49:00,,0816.2,5.01,0.00,29.7,26.6,00.0,38.9,31.1,10.4,0000.0,0013.09,0003.95,0003.11
2021-10-11 21:50:00,,0816.1,5.00,0.00,29.6,26.9,00.0,38.8,31.1,10.5,0000.0,0013.02,0003.92,0003.11
2021-10-11 21:51:00,,0816.2,5.01,0.00,29.6,27.3,00.0,38.8,31.2,10.7,0000.0,0012.70,0003.87,0003.10
2021-10-11 21:52:00,,0816.1,4.99,0.00,29.6,27.6,00.0,38.8,31.3,10.7,0000.0,0012.52,0003.87,0003.09
2021-10-11 21:53:00,,0816.1,4.99,0.00,29.6,27.9,00.0,38.8,31.4,10.7,0000.0,0013.01,0003.86,0003.09
2021-10-11 21:54:00,,0816.1,5.00,0.00,29.7,28.1,00.0,38.8,31.4,10.9,0000.0,0012.59,0003.83,0003.09
2021-10-11 21:55:00,,0816.1,5.01,0.00,29.7,28.3,00.0,38.8,31.5,10.8,0000.0,0012.53,0003.79,0003.07
2021-10-11 21:56:00,,0816.1,4.99,0.00,29.7,28.5,00.0,38.8,31.5,10.6,0000.0,0013.46,0003.78,0003.05
2021-10-11 21:57:00,,0816.2,5.01,0.00,29.8,28.6,00.0,38.8,31.6,10.5,0000.0,0013.91,0003.76,0003.04
2021-10-11 21:58:00,,0816.1,5.00,0.00,29.8,28.7,00.0,38.8,31.6,10.5,0000.0,0013.87,0003.76,0003.05
2021-10-11 21:59:00,,0816.1,5.00,0.00,29.8,28.8,00.0,38.8,31.6,10.5,0000.0,0013.38,0003.72,0003.04
